Wind_Speed
7 7 7 6 6 5 5 4 4 4 3 3 2 2 2 2 2 2 2 3 4 4 5 5 5 5 5 6 6 6 6 6 6 6 6 6 6 6 6 6 6 6 6
8 8 7 6 6 5 5 4 4 4 3 3 2 2 2 2 2 2 2 2 3 3 4 4 4 5 5 5 6 6 6 6 6 6 6 6 6 6 6 6 6 6 6
8 7 6 5 5 5 4 4 4 3 3 3 3 3 2 1 1 2 2 1 2 3 3 3 4 4 4 5 5 5 6 6 6 6 6 5 6 5 5 5 6 6 6
8 7 6 6 5 5 4 4 3 3 3 3 3 3 2 2 2 2 2 2 2 2 2 3 3 4 4 5 5 5 5 6 6 6 5 5 5 5 5 5 5 6 6
9 7 7 6 5 4 4 3 3 2 2 2 3 3 2 2 2 2 2 1 2 2 2 3 3 3 4 4 4 4 5 5 5 5 5 4 4 5 5 4 5 6 5
9 8 7 5 5 4 4 3 2 2 2 2 2 3 3 3 2 1 1 1 1 2 2 3 3 3 4 4 4 4 5 4 5 4 4 4 4 4 4 5 5 5 5
10 9 7 6 5 4 4 3 2 2 2 2 2 3 3 3 2 1 1 1 1 2 2 2 3 4 4 4 4 4 4 4 4 4 4 4 3 4 4 4 4 4 4
10 9 8 6 5 4 3 2 2 2 2 2 2 2 3 2 1 1 1 1 1 2 2 2 3 4 4 4 4 4 3 4 4 4 3 3 3 3 4 4 4 3 3
10 10 9 7 6 4 3 2 2 1 1 1 1 2 2 2 1 1 1 1 1 1 1 2 2 3 4 4 3 3 3 4 4 3 3 3 3 3 3 3 3 3 3
11 11 10 9 7 5 4 3 2 1 0 1 1 1 2 2 1 1 1 1 1 1 1 2 2 3 3 3 3 3 3 3 3 2 2 2 2 3 3 3 3 2 2
12 12 10 9 8 6 5 4 3 1 1 1 1 1 1 1 1 1 1 1 1 1 1 2 2 3 3 3 3 2 2 2 2 2 2 2 2 2 2 2 2 2 2
14 13 11 10 9 7 6 4 3 2 1 1 1 1 1 1 1 0 1 1 1 1 2 2 2 2 2 2 2 1 1 1 2 2 2 2 2 2 2 2 2 1 1
15 13 12 10 8 7 6 5 4 3 2 1 1 1 1 0 0 0 1 1 1 1 1 1 1 1 1 2 2 1 0 0 1 1 1 1 1 1 1 1 1 1 0
16 15 13 11 9 8 7 6 4 4 2 1 1 1 1 1 1 1 2 2 2 1 1 1 0 1 1 1 1 0 1 1 1 1 1 0 0 1 0 0 0 0 1
16 15 14 12 10 8 7 6 4 3 2 1 1 2 2 2 2 2 2 2 2 1 1 1 1 1 0 0 0 1 1 1 1 1 1 1 1 1 1 1 0 1 1
17 16 15 13 11 9 8 6 5 4 2 1 2 1 2 2 2 2 2 2 2 1 1 1 1 1 1 1 1 1 1 1 1 1 2 1 1 1 2 2 2 2 2
18 17 15 13 13 11 9 6 5 5 3 1 1 1 1 2 2 3 2 3 2 2 2 1 1 1 1 2 2 1 1 2 2 2 2 1 1 2 2 3 3 3 3
18 17 16 15 14 13 10 8 7 5 3 2 1 0 0 1 2 2 3 3 3 3 2 2 2 1 2 2 2 2 2 2 2 2 2 2 2 2 3 3 4 4 4
17 17 17 16 14 13 11 9 8 6 4 3 1 1 0 1 1 2 2 3 3 3 3 3 3 3 2 2 2 2 2 2 3 2 2 3 3 3 3 4 4 5 5
16 17 17 16 14 13 11 10 9 7 5 3 2 1 1 1 2 2 3 3 3 3 3 3 3 4 3 3 3 3 3 3 3 3 3 4 4 4 4 4 4 5 5
17 16 17 16 14 13 12 11 10 8 6 4 3 1 1 2 2 3 3 4 3 3 4 4 4 5 4 4 4 4 4 4 4 4 5 5 6 6 6 6 6 6 6
17 17 16 16 14 13 12 11 10 9 8 5 4 2 2 2 2 3 3 4 4 4 4 4 4 5 6 6 6 5 5 5 5 5 6 6 7 8 8 8 8 8 8
17 17 16 15 15 13 11 11 9 9 8 7 6 4 3 3 3 3 4 4 4 4 5 5 5 5 5 6 7 7 6 7 7 7 7 7 8 8 9 10 10 10 10
16 16 15 14 14 14 12 10 9 8 8 8 8 5 4 3 4 4 4 5 5 5 6 6 6 6 6 6 7 8 8 8 9 9 9 9 10 10 10 10 11 12 12
15 15 15 15 14 13 13 11 9 9 8 8 7 6 4 3 3 3 4 5 6 6 6 7 8 7 8 9 9 9 9 9 9 9 10 11 11 12 12 12 13 14 14
14 14 14 14 14 13 12 11 10 9 9 8 8 7 5 4 3 3 3 5 6 6 6 6 7 8 9 10 10 11 11 11 11 11 12 12 13 13 13 14 14 15 15
Wind_Direction
73 73 72 71 67 62 54 48 39 32 20 4 359 13 22 39 56 73 89 102 108 110 111 106 103 101 100 103 104 105 101 99 101 100 101 103 99 94 94 92 94 91 93
74 73 69 67 64 60 54 46 39 30 20 10 3 3 7 26 40 52 72 99 107 106 106 109 108 109 107 109 109 104 103 103 105 104 104 106 101 96 94 91 91 95 98
69 69 68 65 62 60 52 40 34 26 18 16 7 1 360 14 25 38 58 101 116 118 119 115 117 119 113 112 110 106 103 101 103 106 105 108 108 103 96 90 89 99 100
63 65 64 63 62 56 48 36 25 23 18 12 6 5 5 5 18 39 54 86 116 124 122 124 128 125 119 119 114 109 102 103 104 103 101 99 103 104 100 94 94 100 103
57 58 57 58 56 53 46 36 25 20 14 12 9 5 358 353 9 43 61 89 110 113 117 122 132 123 122 126 120 110 101 107 103 98 99 97 101 105 103 99 98 102 104
50 49 47 49 50 49 44 36 26 20 12 14 9 3 359 0 360 40 73 101 111 110 113 116 121 114 113 112 110 109 103 107 98 94 94 97 98 104 106 103 102 105 108
48 45 43 46 51 47 44 41 36 31 21 14 11 9 11 18 27 65 71 84 103 112 107 113 113 109 108 106 104 106 101 99 96 91 90 94 96 102 111 109 106 108 106
46 43 41 41 44 43 41 37 33 31 24 8 354 6 14 14 28 74 79 74 89 108 113 115 115 108 105 102 101 103 104 94 88 84 86 93 95 98 102 113 111 104 99
41 40 40 39 40 37 35 29 11 4 3 356 345 351 3 13 27 106 97 78 80 99 112 108 110 105 102 98 96 95 100 89 81 80 79 90 95 98 103 113 115 114 112
40 40 41 41 37 33 29 26 19 15 340 314 329 336 358 12 37 106 119 102 98 102 104 107 111 111 109 103 95 96 95 85 80 76 77 86 92 98 96 106 112 127 134
41 38 38 37 36 31 31 31 29 28 6 340 11 2 3 15 43 99 139 142 132 111 106 110 114 114 111 103 96 93 90 79 77 77 77 88 100 102 101 97 97 103 130
40 39 36 32 34 33 33 28 26 28 8 337 329 350 343 12 43 136 173 154 133 123 119 115 110 118 122 115 105 94 93 81 75 80 83 97 105 98 108 100 95 96 104
38 38 36 32 31 29 28 22 20 20 4 308 286 292 279 245 350 193 202 193 170 151 146 140 132 136 134 129 114 91 176 321 34 63 92 120 130 119 115 109 103 90 90
35 34 32 28 25 23 22 17 18 15 15 341 275 267 235 229 214 203 201 173 158 151 154 168 211 212 162 141 132 46 339 342 1 6 11 123 196 203 185 137 110 4 275
32 29 29 30 27 24 19 15 18 10 1 343 282 256 244 229 210 188 174 167 162 162 168 214 237 241 260 263 356 340 325 316 302 318 324 325 258 225 224 220 250 314 304
28 26 26 28 27 24 19 17 13 3 343 307 286 267 241 225 203 183 184 189 194 212 247 251 249 254 275 284 262 271 279 258 250 282 292 294 284 239 244 254 265 270 279
24 24 24 24 26 25 27 25 18 15 24 346 290 268 245 228 217 200 200 208 223 238 251 246 240 239 253 258 265 271 267 261 281 276 274 274 282 270 262 264 272 273 270
22 22 22 22 23 25 27 24 24 21 23 15 336 239 192 211 220 210 218 226 232 240 240 226 228 239 240 246 259 270 279 276 286 269 266 269 272 276 274 273 279 280 272
18 19 20 18 19 23 26 27 23 25 16 16 23 346 330 232 234 235 229 230 234 245 238 225 221 233 237 248 266 283 286 284 288 271 264 271 271 270 273 272 277 278 276
16 15 16 17 16 17 24 23 19 20 17 14 15 18 336 291 254 243 237 234 236 248 240 226 225 238 243 254 268 276 276 272 277 265 264 273 271 268 266 265 274 278 275
15 14 14 13 14 16 17 17 17 17 17 6 360 6 347 297 271 250 239 233 234 234 230 236 235 237 242 252 261 266 273 272 268 261 265 269 270 272 269 266 272 276 275
13 12 10 14 14 13 11 9 10 13 16 16 7 352 314 298 267 243 238 237 236 229 232 241 246 247 247 247 252 258 265 268 266 269 272 274 273 278 274 276 272 273 272
10 10 11 12 13 12 8 6 6 10 12 10 1 343 317 297 279 260 245 241 239 235 235 243 251 255 254 250 247 251 256 260 269 270 272 274 275 276 273 274 270 272 272
5 6 8 11 13 11 10 7 3 1 2 1 0 353 333 307 290 278 249 239 238 241 246 252 257 262 259 256 255 255 261 264 266 268 270 273 275 278 276 272 273 273 274
2 5 8 12 13 12 10 8 5 2 359 357 356 354 340 316 297 278 256 255 251 251 256 258 260 263 263 262 263 264 269 270 272 274 276 279 278 275 272 272 276 275 272
360 3 6 8 9 10 11 9 5 3 1 358 353 347 340 325 297 277 270 261 260 259 264 268 264 266 266 266 267 268 268 271 273 275 276 277 280 278 274 274 276 277 276
Height
5902 5902 5902 5902 5902 5902 5902 5902 5902 5902 5902 5902 5902 5902 5902 5901 5901 5900 5900 5900 5899 5899 5899 5899 5898 5898 5898 5898 5897 5897 5897 5897 5897 5897 5897 5896 5896 5896 5895 5895 5895 5894 5894
5903 5903 5903 5903 5903 5903 5903 5903 5903 5903 5903 5903 5903 5903 5902 5902 5902 5901 5900 5900 5900 5900 5900 5899 5899 5899 5899 5899 5899 5898 5898 5898 5898 5898 5897 5897 5897 5896 5896 5896 5896 5895 5895
5903 5904 5904 5904 5904 5904 5904 5904 5904 5904 5904 5904 5904 5903 5903 5903 5902 5902 5901 5901 5900 5900 5900 5900 5900 5899 5899 5900 5900 5899 5899 5899 5899 5898 5898 5898 5898 5897 5897 5897 5896 5896 5896
5904 5905 5905 5904 5905 5905 5905 5905 5905 5905 5905 5905 5904 5904 5904 5903 5903 5902 5902 5901 5901 5901 5901 5900 5900 5900 5900 5900 5900 5900 5900 5900 5899 5899 5899 5899 5898 5898 5898 5898 5897 5897 5897
5906 5905 5905 5905 5905 5905 5905 5905 5905 5905 5905 5905 5905 5904 5904 5904 5903 5903 5902 5902 5902 5901 5901 5901 5901 5900 5900 5900 5901 5901 5900 5900 5900 5900 5900 5899 5899 5899 5899 5899 5898 5898 5898
5907 5906 5906 5906 5905 5905 5905 5905 5905 5906 5906 5905 5905 5905 5904 5904 5904 5903 5903 5902 5902 5902 5902 5902 5901 5901 5901 5901 5901 5901 5901 5901 5901 5901 5900 5900 5900 5900 5899 5899 5899 5899 5899
5908 5907 5907 5906 5906 5906 5906 5906 5906 5906 5906 5906 5906 5905 5905 5905 5904 5904 5903 5903 5903 5902 5902 5902 5902 5902 5902 5902 5902 5902 5902 5901 5901 5901 5901 5901 5901 5900 5900 5900 5900 5900 5900
5909 5908 5908 5907 5906 5906 5906 5906 5906 5906 5906 5906 5906 5906 5906 5905 5905 5904 5904 5904 5903 5903 5903 5903 5903 5903 5903 5903 5902 5902 5902 5902 5902 5902 5902 5902 5901 5901 5901 5901 5901 5901 5900
5910 5909 5908 5907 5907 5906 5906 5906 5906 5906 5906 5906 5906 5906 5906 5905 5905 5905 5904 5904 5904 5904 5904 5904 5904 5904 5904 5904 5903 5903 5903 5903 5903 5903 5902 5902 5902 5902 5901 5901 5901 5901 5901
5912 5910 5909 5908 5907 5906 5906 5906 5905 5906 5906 5906 5906 5906 5906 5906 5905 5905 5905 5905 5904 5904 5904 5904 5904 5905 5904 5904 5904 5904 5904 5903 5903 5903 5903 5903 5902 5902 5902 5902 5901 5901 5901
5913 5912 5910 5909 5908 5907 5906 5905 5905 5905 5906 5906 5906 5906 5906 5906 5906 5905 5905 5905 5905 5905 5905 5905 5905 5905 5905 5905 5905 5904 5904 5904 5904 5903 5903 5903 5903 5903 5902 5902 5902 5901 5901
5914 5912 5911 5909 5908 5907 5906 5906 5905 5905 5905 5906 5906 5906 5906 5906 5906 5906 5906 5905 5905 5905 5905 5906 5906 5905 5905 5905 5905 5905 5904 5904 5904 5904 5903 5903 5903 5903 5903 5902 5902 5902 5902
5915 5914 5912 5910 5909 5907 5906 5906 5905 5905 5905 5905 5905 5906 5906 5906 5906 5906 5906 5906 5905 5905 5905 5906 5906 5906 5906 5905 5905 5905 5905 5905 5904 5904 5904 5903 5903 5903 5903 5903 5902 5902 5902
5917 5915 5913 5911 5909 5908 5907 5906 5905 5905 5905 5905 5905 5905 5906 5906 5906 5906 5906 5906 5906 5906 5906 5906 5906 5906 5906 5906 5905 5905 5905 5905 5904 5904 5904 5904 5903 5903 5903 5903 5902 5902 5902
5918 5916 5914 5912 5910 5909 5907 5906 5905 5905 5905 5905 5905 5905 5905 5905 5906 5906 5906 5906 5906 5906 5906 5906 5906 5906 5906 5906 5906 5905 5905 5905 5905 5904 5904 5903 5903 5903 5903 5903 5902 5902 5901
5918 5916 5914 5912 5910 5909 5908 5906 5905 5905 5905 5904 5904 5905 5905 5905 5905 5906 5906 5906 5906 5906 5906 5906 5906 5906 5906 5906 5906 5905 5905 5905 5904 5904 5904 5903 5903 5903 5903 5902 5902 5901 5901
5919 5917 5915 5913 5911 5909 5908 5906 5905 5905 5904 5903 5904 5904 5904 5905 5905 5905 5906 5906 5906 5906 5906 5906 5906 5906 5906 5906 5906 5905 5905 5904 5904 5904 5904 5903 5903 5902 5902 5902 5902 5901 5900
5920 5917 5915 5913 5911 5909 5907 5906 5905 5904 5904 5904 5903 5903 5903 5904 5904 5904 5905 5905 5905 5905 5905 5906 5906 5905 5906 5906 5905 5905 5905 5904 5904 5904 5903 5903 5902 5902 5902 5901 5901 5900 5900
5921 5918 5916 5914 5911 5909 5908 5907 5905 5905 5904 5903 5903 5903 5903 5903 5904 5904 5904 5904 5904 5905 5905 5905 5905 5905 5905 5905 5905 5905 5904 5904 5904 5903 5903 5902 5902 5902 5901 5901 5900 5900 5899
5923 5920 5917 5915 5912 5910 5908 5907 5906 5905 5904 5903 5903 5902 5902 5902 5903 5903 5903 5903 5904 5904 5904 5904 5904 5905 5905 5905 5904 5904 5904 5904 5903 5903 5902 5902 5901 5901 5900 5900 5899 5899 5898
5924 5921 5918 5916 5913 5911 5909 5907 5906 5905 5904 5903 5902 5902 5902 5902 5902 5902 5902 5902 5902 5903 5903 5903 5903 5904 5904 5904 5904 5904 5903 5903 5902 5902 5902 5901 5900 5900 5899 5899 5898 5898 5897
5925 5922 5918 5916 5914 5911 5909 5908 5906 5905 5903 5903 5902 5901 5901 5901 5901 5901 5901 5901 5901 5901 5902 5902 5902 5902 5902 5902 5903 5902 5902 5903 5902 5901 5901 5900 5900 5899 5898 5897 5896 5896 5895
5925 5923 5919 5917 5914 5912 5909 5908 5906 5905 5903 5902 5901 5900 5900 5899 5899 5900 5899 5900 5900 5900 5900 5901 5901 5901 5901 5901 5901 5901 5901 5901 5900 5900 5899 5899 5898 5897 5896 5895 5895 5894 5893
5926 5923 5920 5917 5915 5912 5910 5908 5906 5905 5903 5902 5901 5899 5898 5898 5898 5898 5898 5898 5899 5899 5899 5899 5899 5899 5899 5900 5900 5900 5900 5899 5899 5898 5898 5897 5896 5895 5894 5893 5892 5891 5891
5926 5923 5920 5917 5915 5913 5910 5908 5906 5905 5903 5902 5900 5899 5898 5897 5897 5897 5897 5897 5897 5897 5897 5897 5897 5897 5897 5898 5898 5898 5898 5897 5897 5897 5896 5895 5894 5893 5892 5891 5890 5889 5888
5926 5923 5920 5918 5915 5913 5910 5908 5906 5904 5903 5902 5900 5898 5897 5896 5896 5896 5895 5896 5896 5896 5895 5895 5895 5895 5895 5895 5895 5895 5895 5895 5894 5893 5893 5892 5891 5890 5889 5888 5887 5885 5884